Other Surface Observations
Issued by NWS Charleston, SC

Home | Current Version | Previous Version | Text Only | Print | Product List | Glossary On
Versions: 1 2 3 4 5 6 7 8 9 10 11 12 13 14 15 16 17 18 19 20 21 22 23 24 25 26 27 28 29 30 31 32 33 34 35 36 37 38 39 40 41 42 43 44 45 46 47 48 49 50
000
SXUS52 KCHS 290225
OSOCHS

MARINE OBSERVATIONS
NATIONAL WEATHER SERVICE CHARLESTON SC
1000 PM EDT MON JUL 28 2014

...DOWNTOWN CHARLESTON AND HARBOR...

CITY           SKY/WX    TMP DP  RH WIND       PRES   REMARKS
WATERFRONT PRK   N/A     86 N/A N/A SW5         N/A
FORT JOHNSON   NOT AVBL

...LAKE MOULTRIE...

CITY           SKY/WX    TMP DP  RH WIND       PRES   REMARKS
PINOPOLIS        N/A     84  73  70 SW10      29.75R HX  91

...LAKE AND SUPPLEMENTAL COASTAL OBSERVATIONS...

STATION/POSITION TIME  TEMP    WIND        PRES    WAVE   SWELL
                       AIR SEA DIR/SP/G            HT/PER HT/PER/DIR
                 (UTC) (F)     (DEG/KT/KT) (MB)    (FT/S) (FT/S/D)
FORT PULASKI     0200   87     250/  4/  5 1011.1R
SAPELO ISLAND    0200   89     240/ 12     1012.0S
UPR LAKE MARION  NOT AVBL
WINYAH BAY       0200   80      10/  5     1010.0R
LAKE MURRAY      0200   81     310/  2/  7 1011.5R
ACE BASIN NERRS  0200   83        CALM     1011.0R


...C-MAN AND BUOY OBSERVATIONS...

STATION/POSITION TIME  TEMP    WIND        PRES    WAVE   SWELL
                       AIR SEA DIR/SP/G            HT/PER HT/PER/DIR
                 (UTC) (F)     (DEG/KT/KT) (MB)    (FT/S) (FT/S/D)
BUOY 41004       0200   85 84  220/ 19/ 23 1009.2R   5/ 6   2/ 9
BUOY 41008       0200   87 85  230/ 16/ 19 1010.8R   2/ 4   2/110/ 8
FOLLY BEACH CMAN 0200   86     240/  6/  9 1010.8R
CAPERS NS BUOY   0100   86     240/ 12/ 16   N/A
FRIPP NS BUOY    NOT AVBL
5E ST. MARYS GA  0200      85                N/A     2/ 3
FRYING PAN BUOY  NOT AVBL
BUOY 41025       0200          VRB 16/ 17  1007.0F   4/ 6   2/160/ 8
CAPE LOOKOUT NC  0200   79     250/ 11/ 14 1009.2R
BUOY 41002       0110   82 81  230/ 17/ 21 1013.7S   6/ 8
BUOY 41010       0200   84 84  200/ 17/ 19 1014.9F   3/ 6   2/120/ 8
BUOY 41012       NOT AVBL
ST AUGUSTINE FL  0200   81     220/  6/  7 1014.5R


$$



USA.gov is the U.S. government's official web portal to all federal, state and local government web resources and services.